Flag for Ireland Weather past 2 weeks in Galway, Ireland

52 °F

Passing clouds.

Feels Like: 47 °F
Forecast: N/A
Wind: 16 mph from Northwest

Location: Shannon Airport

Current Time: Nov 25, 2015 at 5:10:27 PM

Latest Report: Nov 25, 2015 at 4:30 PM

Visibility: N/A

Pressure: 30.15 "Hg

Humidity: 77%

Dew point: 45 °F

Location of GalwayLocation

Historic Weather in Galway — Graph


Galway temperature yesterday

Maximum temperature yesterday: 52 °F (at 4:30 PM)
Minimum temperature yesterday: 46 °F (at 12:30 AM)
Average temperature yesterday: 49 °F

Past Weeks' High & Low Weather Summary

High61 °F (Nov 15, 12:30 PM)100% (Nov 10, 6:00 PM)30.27 "Hg (Nov 10, 6:00 PM)
Low34 °F (Nov 23, 12:00 AM)59% (Nov 11, 2:00 PM)29.21 "Hg (Nov 17, 2:00 PM)
Average49 °F85%29.89 "Hg
* Reported Nov 10 4:00 PM — Nov 25 4:00 PM, Galway, Weather by CustomWeather, © 2015

Note: Actual official high and low records may vary slightly from our data, if they occured in-between our weather recording intervals... More about our weather records


Galway weather history for previous 24 hours

Time TempWeatherWind HumidityBarometerVisibility
4:00 PM
Wed, Nov 25
52 °FPassing clouds.17 mph77%30.15 "HgN/A
3:30 PM54 °FPassing clouds.18 mph72%30.15 "HgN/A
3:00 PM54 °FPassing clouds.13 mph72%30.18 "Hg6 mi
2:30 PM54 °FPassing clouds.14 mph72%30.18 "Hg6 mi
2:00 PM54 °FPassing clouds.10 mph72%30.18 "Hg5 mi
1:30 PM54 °FPassing clouds.12 mph77%30.18 "Hg5 mi
1:00 PM54 °FPassing clouds.13 mph77%30.18 "Hg5 mi
12:30 PM54 °FScattered clouds.17 mph77%30.18 "Hg4 mi
12:00 PM54 °FPassing clouds.22 mph77%30.18 "Hg4 mi
11:30 AM54 °FPassing clouds.25 mph77%30.15 "Hg4 mi
11:00 AM52 °FPassing clouds.21 mph82%30.15 "Hg4 mi
10:30 AM52 °FPassing clouds.16 mph82%30.15 "Hg4 mi
10:00 AM52 °FPassing clouds.14 mph82%30.15 "Hg6 mi
9:30 AM52 °FScattered clouds.18 mph82%30.12 "Hg6 mi
9:00 AM52 °FBroken clouds.23 mph82%30.12 "Hg5 mi
8:30 AM52 °FPartly sunny.25 mph82%30.12 "Hg5 mi
8:00 AM52 °FPartly cloudy.22 mph88%30.12 "Hg5 mi
7:00 AM52 °FPassing clouds.18 mph88%30.09 "Hg6 mi
6:00 AM52 °FPassing clouds.22 mph88%30.09 "Hg6 mi
5:00 AM52 °FPartly cloudy.22 mph88%30.07 "HgN/A
4:00 AM52 °FPartly cloudy.20 mph94%30.07 "Hg6 mi
3:30 AM52 °FPartly cloudy.22 mph88%30.07 "Hg6 mi
3:00 AM52 °FPartly cloudy.22 mph94%30.04 "Hg4 mi
2:30 AM52 °FPartly cloudy.18 mph94%30.04 "Hg4 mi
2:00 AM52 °FPartly cloudy.16 mph94%30.04 "Hg6 mi
1:30 AM52 °FDrizzle. Overcast.16 mph94%30.04 "Hg4 mi
1:00 AM52 °FPartly cloudy.13 mph88%30.07 "HgN/A
12:30 AM52 °FLight rain. Partly cloudy.15 mph88%30.04 "HgN/A
12:00 AM52 °FPartly cloudy.15 mph88%30.04 "HgN/A
11:30 PM
Tue, Nov 24
50 °FPartly cloudy.21 mph94%30.04 "HgN/A
11:00 PM50 °FPartly cloudy.18 mph94%30.04 "HgN/A
10:00 PM50 °FPartly cloudy.16 mph88%30.01 "HgN/A
9:30 PM50 °FPartly cloudy.17 mph88%30.04 "Hg6 mi
9:00 PM50 °FPassing clouds.16 mph88%30.04 "HgN/A
8:30 PM50 °FPartly cloudy.17 mph88%30.01 "HgN/A
8:00 PM50 °FPartly cloudy.21 mph88%30.01 "HgN/A
7:30 PM50 °FPassing clouds.21 mph88%30.01 "HgN/A
7:00 PM50 °FPassing clouds.23 mph94%30.01 "HgN/A
6:30 PM50 °FPassing clouds.18 mph88%30.01 "HgN/A
6:00 PM50 °FPassing clouds.21 mph94%29.98 "Hg6 mi
5:30 PM50 °FPassing clouds.20 mph88%29.98 "Hg6 mi
5:00 PM50 °FPassing clouds.18 mph94%29.98 "Hg6 mi
Weather by CustomWeather, © 2015

See weather overviewHow to use our weather pages